DG4DAA-13 Weather Reports


time (UTC)temp
F
wind
direction
speed
knots
gust
knots
rain 1hr
in
rain 24hr
in
rain mn
in
humidity
%
barometer
mb
20260507000816 46 290 0.0 0.0 0.02 1.17 0.02 94 1013.4
20260506233824 46 311 0.0 0.9 0.01 1.16 0.01 94 1013.2
20260506233816 46 311 0.0 0.9 0.01 1.16 0.01 94 1013.2
20260506230827 46 262 0.0 0.0 0.00 1.31 0.00 94 1013.2
20260506230816 46 262 0.0 0.0 0.00 1.31 0.00 94 1013.2
20260506223816 46 297 0.0 0.9 0.00 1.31 0.00 94 1013.1
20260506220824 46 330 0.0 0.0 0.00 1.47 0.00 94 1012.8
20260506220816 46 330 0.0 0.0 0.00 1.47 0.00 94 1012.8
20260506213816 46 288 0.0 0.9 0.00 1.47 1.49 94 1012.8
20260506210828 46 285 0.0 0.0 0.01 1.65 1.49 94 1012.7
20260506210820 46 285 0.0 0.0 0.01 1.65 1.49 94 1012.7
20260506210817 46 285 0.0 0.0 0.01 1.65 1.49 94 1012.7
20260506203816 46 274 0.0 0.0 0.01 1.65 1.49 94 1012.5
20260506200822 46 352 0.0 0.0 0.00 1.76 1.48 94 1012.2
20260506200816 46 352 0.0 0.0 0.00 1.76 1.48 94 1012.2
20260506193827 46 272 0.0 0.0 0.00 1.76 1.48 94 1012.1
20260506193816 46 272 0.0 0.0 0.00 1.76 1.48 94 1012.1
20260506190837 46 267 0.0 1.7 0.00 1.90 1.48 94 1011.7
20260506190816 46 267 0.0 1.7 0.00 1.90 1.48 94 1011.7
20260506183816 46 291 0.0 1.7 0.01 1.90 1.48 94 1011.4
20260506180837 47 236 0.0 0.0 0.01 1.96 1.48 94 1011.1
20260506180816 47 236 0.0 0.0 0.01 1.96 1.48 94 1011.1
20260506173816 47 276 0.0 0.0 0.02 1.95 1.47 94 1010.8
20260506170842 47 32 0.0 0.0 0.04 1.95 1.47 94 1010.6
20260506170817 47 32 0.0 0.0 0.04 1.95 1.47 94 1010.6
20260506163823 48 249 0.0 0.0 0.04 1.93 1.45 94 1010.4
20260506163817 48 249 0.0 0.0 0.04 1.93 1.45 94 1010.4
20260506160934 48 236 0.0 0.0 0.05 1.91 1.43 94 1010.4
20260506160827 48 236 0.0 0.0 0.05 1.91 1.43 94 1010.4
20260506160817 48 236 0.0 0.0 0.05 1.91 1.43 94 1010.4
20260506153835 48 333 0.0 0.0 0.08 1.89 1.41 94 1010.4
20260506153817 48 333 0.0 0.0 0.08 1.89 1.41 94 1010.4
20260506150817 47 275 0.0 0.0 0.10 1.86 1.38 94 1010.4
20260506143817 47 324 0.0 0.0 0.12 1.81 1.33 94 1010.3
20260506140817 47 248 0.0 1.7 0.13 1.76 1.28 94 1010.1
20260506133817 47 286 0.0 0.0 0.09 1.69 1.21 94 1010.1
20260506130959 47 286 0.0 0.0 0.04 1.63 1.15 94 1010.0
20260506130850 47 286 0.0 0.0 0.04 1.63 1.15 94 1010.0
20260506130817 47 286 0.0 0.0 0.04 1.63 1.15 94 1010.0
20260506123817 47 283 0.0 0.0 0.02 1.60 1.12 94 1009.8
20260506120817 47 269 0.0 0.0 0.03 1.65 1.11 94 1009.5
20260506113817 46 285 0.0 0.9 0.04 1.64 1.10 94 1009.5
20260506110817 46 281 0.0 0.0 0.05 1.71 1.08 94 1009.4
20260506103820 46 281 0.0 0.9 0.04 1.69 1.06 94 1009.3
20260506103817 46 281 0.0 0.9 0.04 1.69 1.06 94 1009.3
20260506100817 47 270 0.0 0.0 0.01 1.66 1.03 93 1009.0
20260506093817 47 311 0.0 1.7 0.01 1.65 1.02 93 1008.8
20260506090818 48 306 0.0 0.9 0.03 1.65 1.02 93 1008.4
20260506083818 49 259 0.0 0.0 0.05 1.64 1.01 94 1008.1
20260506080818 48 270 0.0 0.0 0.05 1.62 0.99 94 1008.0
20260506070818 48 281 0.0 0.0 0.10 1.57 0.94 94 1007.7
20260506060818 48 304 0.0 0.0 0.05 1.47 0.84 94 1007.4
20260506050823 48 4 0.0 0.0 0.12 1.42 0.79 94 1007.4
20260506050818 48 4 0.0 0.0 0.12 1.42 0.79 94 1007.4
20260506043832 48 304 0.0 0.0 0.05 1.33 0.70 94 1007.4
20260506043818 48 304 0.0 0.0 0.05 1.33 0.70 94 1007.4
20260506040818 49 276 0.0 0.0 0.05 1.30 0.67 94 1007.3
20260506033818 49 10 0.0 0.9 0.05 1.28 0.65 93 1007.3
20260506030818 49 273 0.0 0.9 0.05 1.25 0.62 93 1007.4
20260506023818 50 332 0.0 0.0 0.10 1.23 0.60 93 1007.7
20260506020818 51 337 0.0 0.0 0.13 1.20 0.57 94 1007.8
20260506013818 51 24 0.0 0.0 0.10 1.13 0.50 93 1008.0
20260506010818 51 280 0.0 1.7 0.10 1.07 0.44 93 1008.0
20260506003838 51 319 0.0 0.0 0.14 1.03 0.40 93 1008.2
20260506003819 51 319 0.0 0.0 0.14 1.03 0.40 93 1008.2